Wind_Speed
43 42 39 39 42 43 41 37 37 37 39 36 35 31 29 28 28 30 33 33 33 33 34 38 42 45 47 47 47 46 47 44 36 33 32 38 36 43 47 37 29 31 31 29
45 42 39 44 45 43 43 42 39 39 40 39 40 36 34 33 32 31 31 32 33 33 34 36 40 43 47 48 47 46 44 39 38 35 35 38 39 40 44 31 15 17 26 24
42 45 44 45 45 43 43 43 41 38 41 40 41 37 36 39 36 35 32 32 32 33 33 34 35 37 39 45 48 48 46 43 41 40 39 38 40 34 32 28 29 24 28 28
41 43 45 44 46 45 44 44 42 41 39 36 43 32 42 41 40 39 36 34 34 34 35 33 34 37 39 41 44 46 46 45 45 43 40 42 45 42 43 43 40 39 40 38
36 39 42 45 44 47 44 46 44 42 40 39 45 41 24 44 42 42 41 38 37 37 37 36 33 35 38 39 40 42 44 47 48 48 47 43 44 44 46 47 46 47 45 46
32 43 42 45 47 45 46 45 45 44 41 45 41 43 26 35 48 42 44 43 41 40 40 38 37 37 38 40 40 40 42 43 45 46 48 50 50 50 51 53 50 50 50 52
31 37 38 39 41 42 44 43 41 39 41 46 29 37 33 45 50 43 44 45 45 45 42 41 41 39 38 40 42 44 44 44 45 45 46 48 49 50 51 52 52 53 51 54
25 34 36 38 38 38 38 35 28 25 27 25 36 38 38 48 47 46 45 45 46 46 45 43 42 42 40 40 43 45 47 48 48 48 49 48 51 50 48 49 51 51 50 51
31 36 39 35 36 35 37 34 37 37 35 36 26 36 41 43 44 45 45 46 45 46 46 46 46 44 43 43 42 43 48 52 53 52 53 53 53 52 52 51 50 53 54 54
34 36 33 34 34 36 39 37 37 41 41 38 31 34 31 46 45 45 45 45 47 48 50 49 48 46 45 47 46 46 47 49 54 56 56 56 57 55 56 56 57 57 55 54
38 39 42 41 41 42 38 39 40 42 43 40 36 27 34 39 37 37 38 37 40 43 46 45 46 47 49 50 50 49 49 50 52 56 59 59 59 61 61 60 59 59 60 53
38 42 42 45 48 43 45 44 47 46 42 43 44 40 43 43 43 43 41 42 43 44 45 46 48 47 47 49 50 55 55 52 53 55 58 60 63 63 63 62 62 60 58 58
24 28 29 33 36 42 47 48 42 42 47 47 50 40 43 50 51 49 47 47 48 49 49 49 49 51 51 49 48 49 52 59 58 54 57 59 62 63 65 65 64 62 60 59
25 25 26 29 34 35 32 35 38 40 41 42 43 47 52 52 49 47 49 49 50 52 53 54 54 53 53 54 52 51 51 49 51 56 55 57 59 61 63 63 62 59 57 56
21 20 23 26 29 32 33 33 34 35 37 39 40 47 51 53 51 52 52 52 51 52 53 55 56 56 54 55 57 54 61 57 47 54 55 56 57 59 55 56 57 57 57 58
23 22 24 26 28 27 26 26 31 33 33 34 36 37 37 35 36 38 40 41 43 45 47 48 50 51 52 53 56 59 62 65 64 60 59 59 57 57 58 55 54 57 54 55
22 23 26 25 28 24 22 24 23 21 23 23 21 22 19 18 16 18 19 19 20 21 23 25 28 31 35 42 52 56 59 61 65 70 66 60 67 64 59 61 61 57 56 54
21 22 25 21 21 17 17 16 16 18 18 17 17 17 17 19 20 23 25 26 29 31 32 33 34 35 36 35 35 35 43 54 61 64 69 75 69 63 68 68 63 65 64 62
21 21 20 13 10 9 10 12 14 17 17 17 20 21 21 22 24 25 27 27 31 32 33 35 36 37 37 39 42 41 37 37 42 51 56 60 61 69 71 65 65 66 66 62
18 16 14 13 11 12 14 14 15 14 15 19 23 23 23 23 21 22 29 27 30 33 34 35 35 35 37 39 42 42 43 43 42 40 43 50 53 59 63 69 71 68 68 66
13 14 13 13 12 12 14 14 15 16 19 20 22 23 19 20 24 24 29 33 36 37 36 37 37 37 38 39 41 42 45 46 46 46 44 41 44 47 53 60 65 72 75 72
14 13 13 14 12 14 15 16 17 17 19 20 19 20 21 24 29 33 35 34 36 39 41 42 41 40 40 41 42 43 45 45 48 49 48 46 44 42 41 44 50 57 64 67
12 13 12 13 12 12 13 16 17 17 19 18 20 24 28 30 33 35 36 39 42 43 43 42 40 39 40 40 40 39 38 38 39 47 50 49 48 45 41 43 40 45 50 56
15 14 14 16 15 13 15 16 14 15 18 21 24 27 31 35 34 36 37 38 35 35 37 36 34 32 32 33 36 38 39 40 39 38 39 45 49 46 45 45 42 41 41 43
15 13 14 14 15 13 13 13 15 17 21 25 28 32 34 35 36 37 33 35 34 31 29 27 26 27 29 32 37 41 43 42 40 40 41 40 42 45 46 47 46 43 40 38
14 13 12 13 11 13 15 17 20 22 26 29 31 33 34 35 35 32 34 32 30 26 24 25 25 27 26 25 25 26 28 29 32 33 36 38 40 42 43 47 48 44 41 39
Wind_Direction
258 257 257 254 252 254 258 255 254 255 258 259 262 259 260 260 259 255 254 255 256 252 253 250 249 251 253 251 251 252 254 261 260 265 266 267 263 262 279 295 279 219 226 227
256 254 252 252 253 252 254 256 256 255 256 258 260 260 259 258 259 257 256 256 255 252 253 249 248 249 251 253 253 255 255 255 253 258 259 268 264 268 273 283 278 251 244 248
254 254 250 252 253 253 254 255 256 254 255 257 260 260 258 258 258 257 256 257 258 257 251 251 249 247 246 250 252 253 256 255 251 253 255 259 258 261 263 266 262 247 245 254
253 250 253 252 252 253 255 253 254 254 254 257 255 258 260 257 259 261 259 256 255 256 257 252 249 248 244 244 248 251 254 256 258 257 254 253 260 264 267 270 263 268 261 262
256 250 251 250 252 252 253 257 256 256 254 251 258 254 247 257 253 256 259 258 257 257 255 255 253 252 252 247 245 247 247 250 255 257 260 258 255 257 262 264 269 271 274 277
248 251 248 249 252 254 254 256 257 257 256 255 255 258 250 256 254 253 253 257 256 255 257 257 253 251 252 252 249 246 248 249 249 250 254 259 260 261 262 265 267 268 268 269
258 255 256 255 254 253 255 256 260 261 258 258 252 250 237 247 258 254 255 256 257 257 255 255 255 251 249 251 251 249 249 249 251 253 254 255 257 258 261 264 264 265 265 266
246 260 255 252 255 254 255 251 246 252 253 261 255 248 247 252 256 257 253 252 255 257 258 258 257 257 253 247 248 249 248 249 250 252 252 253 256 259 258 258 260 264 264 269
248 248 259 259 255 250 252 245 242 242 231 226 243 258 255 255 252 255 254 254 253 254 256 257 257 254 252 252 246 244 246 246 248 250 251 252 251 251 252 253 252 257 261 263
258 256 260 260 258 255 256 259 255 252 246 243 244 239 257 263 257 257 258 256 255 256 256 255 256 255 251 250 249 246 243 243 243 245 248 249 251 251 250 250 252 256 263 265
258 256 260 261 261 257 260 263 263 261 262 262 256 247 256 259 260 255 253 254 252 253 255 256 257 255 255 252 248 246 246 243 243 242 242 245 247 247 247 250 252 256 260 264
252 255 256 262 262 264 264 262 261 262 263 267 262 263 266 266 267 266 262 260 260 256 255 258 256 255 255 251 250 247 244 243 245 243 243 243 243 246 248 251 253 253 253 256
258 256 257 262 262 260 257 256 257 262 260 259 262 264 266 270 268 268 269 268 268 267 265 261 259 257 255 251 247 248 247 243 241 244 245 244 245 246 248 251 253 255 257 257
267 266 261 257 249 262 263 258 259 258 257 260 258 256 257 262 265 269 269 268 267 267 267 266 264 261 258 251 245 247 247 248 245 244 244 247 245 247 247 249 251 254 256 254
264 262 261 260 258 259 261 259 257 255 253 252 248 250 254 259 263 262 264 265 265 265 265 265 264 264 261 256 243 239 253 255 248 249 242 244 244 245 248 249 251 251 254 256
272 273 271 269 263 261 263 260 253 253 253 253 254 254 258 261 261 262 262 263 265 266 265 266 264 263 261 259 257 255 253 251 248 245 244 243 240 243 244 246 248 250 250 252
275 277 275 272 273 269 262 249 250 250 244 238 240 244 248 252 252 260 265 269 271 275 279 281 281 280 278 273 263 257 254 254 250 246 239 239 240 239 243 242 242 241 241 244
274 273 272 276 274 266 254 243 235 230 233 231 238 244 250 258 267 273 272 271 270 273 276 277 274 272 276 279 278 275 267 260 255 254 255 249 247 238 239 241 244 248 251 252
269 267 263 250 233 229 229 231 235 237 238 234 243 251 255 264 273 280 275 277 275 276 276 276 275 274 274 272 271 271 272 274 268 261 260 259 256 255 250 240 242 245 251 253
266 251 227 234 240 234 233 232 240 243 247 250 257 263 267 271 276 285 288 287 286 285 284 284 281 278 275 272 272 272 270 268 267 268 266 262 257 255 253 251 249 247 246 246
237 221 231 240 233 231 236 248 256 260 262 265 269 270 268 278 286 291 292 293 293 291 289 285 283 281 281 277 270 269 268 266 263 262 261 263 261 259 256 254 252 250 250 252
226 231 237 241 237 237 248 260 265 270 277 275 268 268 276 283 287 291 292 291 290 289 286 283 280 278 279 279 275 271 267 262 261 259 257 255 257 257 258 257 254 252 251 250
228 231 236 243 251 248 253 261 270 272 267 269 274 281 286 290 295 296 297 297 295 292 286 279 276 276 277 277 277 275 272 268 262 256 252 252 251 252 254 256 253 250 248 248
231 238 239 245 253 262 269 272 269 268 277 282 286 290 294 298 300 301 301 299 296 295 290 284 280 279 280 281 281 279 275 271 266 262 259 253 249 247 247 249 247 248 249 246
237 244 242 248 262 270 275 282 288 291 290 292 296 298 300 301 302 302 301 301 299 294 288 282 278 280 282 284 282 279 277 274 270 264 258 253 250 248 246 245 245 245 245 245
243 242 245 257 271 278 290 295 294 294 294 297 297 298 300 302 302 301 303 300 298 292 285 284 283 288 296 300 301 292 283 278 273 268 265 261 253 246 243 244 243 241 241 242
Height
5820 5822 5824 5825 5826 5827 5829 5832 5834 5833 5833 5837 5838 5841 5842 5842 5843 5844 5844 5847 5849 5853 5856 5859 5861 5863 5866 5869 5873 5876 5879 5881 5882 5883 5885 5883 5886 5882 5876 5876 5880 5890 5891 5893
5808 5811 5812 5812 5814 5818 5819 5822 5825 5825 5826 5829 5828 5832 5835 5835 5835 5837 5837 5839 5842 5844 5847 5850 5852 5855 5858 5859 5862 5866 5869 5872 5875 5876 5877 5876 5878 5877 5877 5876 5878 5883 5886 5887
5797 5798 5800 5802 5804 5808 5810 5812 5814 5817 5817 5820 5821 5823 5825 5825 5827 5829 5830 5830 5833 5836 5838 5841 5843 5845 5848 5851 5854 5857 5860 5862 5866 5868 5870 5870 5871 5874 5874 5874 5872 5876 5877 5880
5785 5786 5789 5792 5793 5796 5798 5802 5804 5806 5810 5812 5812 5818 5814 5815 5817 5818 5821 5823 5824 5826 5828 5830 5834 5835 5838 5840 5843 5846 5849 5852 5855 5859 5862 5864 5864 5867 5864 5863 5866 5866 5868 5868
5777 5777 5776 5779 5783 5784 5789 5789 5794 5796 5799 5801 5802 5807 5812 5803 5807 5809 5810 5812 5814 5815 5818 5821 5823 5827 5828 5831 5833 5835 5838 5841 5844 5848 5850 5853 5855 5857 5857 5857 5859 5858 5856 5858
5767 5762 5767 5768 5770 5775 5777 5780 5782 5785 5788 5789 5795 5794 5802 5795 5794 5799 5800 5802 5804 5806 5807 5811 5813 5816 5819 5821 5823 5825 5827 5830 5833 5836 5839 5841 5843 5845 5846 5847 5850 5849 5852 5850
5757 5755 5757 5760 5762 5764 5766 5770 5773 5775 5776 5779 5784 5785 5789 5785 5783 5789 5790 5792 5793 5796 5799 5801 5803 5806 5809 5812 5814 5815 5817 5819 5821 5824 5827 5829 5831 5833 5834 5835 5838 5840 5841 5840
5752 5746 5749 5751 5754 5756 5757 5761 5766 5769 5773 5776 5768 5770 5770 5772 5774 5778 5781 5782 5783 5785 5787 5790 5792 5795 5797 5801 5804 5805 5807 5808 5811 5813 5815 5818 5820 5821 5823 5824 5825 5828 5828 5830
5740 5740 5739 5743 5745 5748 5747 5751 5751 5754 5757 5760 5764 5757 5758 5760 5764 5765 5769 5771 5773 5775 5776 5778 5781 5783 5785 5787 5790 5794 5796 5798 5800 5801 5804 5806 5807 5809 5811 5812 5815 5816 5819 5819
5729 5731 5732 5734 5736 5738 5739 5742 5744 5743 5745 5747 5752 5751 5751 5747 5752 5754 5755 5758 5760 5761 5763 5765 5767 5769 5773 5775 5777 5779 5782 5785 5787 5789 5791 5794 5797 5799 5800 5802 5804 5805 5806 5808
5721 5723 5723 5724 5725 5728 5731 5732 5734 5734 5735 5737 5739 5737 5737 5736 5739 5740 5742 5745 5747 5749 5750 5752 5753 5755 5757 5761 5763 5766 5768 5770 5773 5775 5777 5779 5782 5785 5787 5789 5792 5795 5796 5797
5709 5711 5714 5714 5711 5718 5719 5721 5722 5723 5727 5725 5727 5728 5725 5725 5727 5728 5730 5732 5734 5736 5738 5738 5739 5740 5742 5744 5747 5750 5753 5754 5758 5761 5763 5765 5766 5768 5771 5773 5776 5780 5783 5785
5700 5701 5703 5704 5705 5702 5704 5706 5708 5710 5713 5717 5717 5720 5712 5713 5714 5715 5717 5719 5719 5719 5722 5723 5725 5725 5727 5728 5730 5733 5735 5738 5741 5745 5749 5751 5753 5756 5757 5759 5761 5764 5767 5770
5692 5692 5693 5695 5692 5691 5693 5694 5696 5698 5700 5704 5705 5705 5701 5700 5703 5704 5704 5704 5706 5706 5706 5706 5708 5710 5711 5713 5715 5717 5720 5722 5725 5728 5731 5736 5738 5740 5743 5745 5748 5750 5752 5755
5683 5684 5684 5683 5683 5682 5683 5684 5685 5686 5688 5689 5691 5688 5688 5689 5691 5691 5691 5691 5691 5691 5691 5691 5691 5692 5694 5697 5700 5702 5704 5708 5711 5713 5715 5718 5722 5725 5728 5731 5734 5736 5739 5741
5675 5674 5674 5674 5673 5674 5674 5674 5674 5675 5676 5677 5677 5677 5677 5679 5679 5679 5679 5678 5678 5677 5677 5677 5677 5677 5678 5680 5682 5684 5686 5690 5694 5695 5697 5701 5705 5709 5712 5716 5719 5722 5725 5728
5667 5666 5665 5666 5662 5664 5666 5665 5665 5667 5667 5669 5671 5671 5673 5672 5672 5672 5671 5671 5669 5668 5667 5666 5665 5664 5663 5664 5665 5667 5668 5670 5673 5677 5678 5683 5687 5690 5695 5699 5703 5706 5711 5715
5660 5659 5657 5657 5656 5657 5657 5658 5659 5661 5662 5664 5666 5667 5667 5666 5666 5666 5665 5664 5662 5661 5660 5658 5656 5655 5654 5652 5652 5651 5651 5653 5654 5656 5656 5660 5665 5669 5675 5680 5685 5689 5694 5698
5652 5651 5651 5651 5652 5654 5654 5655 5656 5658 5659 5660 5661 5661 5661 5661 5660 5658 5657 5655 5652 5651 5649 5647 5646 5644 5643 5642 5641 5641 5641 5639 5638 5638 5639 5641 5643 5650 5654 5660 5666 5672 5677 5682
5645 5644 5646 5647 5649 5650 5649 5651 5652 5654 5655 5655 5655 5655 5654 5654 5652 5651 5646 5646 5643 5640 5637 5635 5634 5632 5632 5631 5629 5628 5627 5628 5627 5625 5625 5626 5627 5632 5636 5642 5647 5652 5658 5665
5640 5641 5642 5643 5645 5646 5645 5647 5648 5649 5651 5648 5647 5646 5646 5645 5643 5643 5638 5634 5631 5628 5626 5624 5622 5620 5619 5618 5616 5615 5614 5613 5613 5613 5614 5615 5614 5616 5619 5623 5627 5633 5639 5645
5637 5638 5639 5640 5641 5642 5642 5642 5643 5643 5641 5640 5639 5639 5639 5637 5635 5632 5629 5626 5622 5618 5614 5611 5609 5607 5604 5602 5601 5600 5599 5599 5598 5599 5600 5601 5603 5605 5607 5609 5610 5614 5619 5625
5635 5636 5637 5637 5637 5637 5638 5637 5636 5636 5635 5634 5633 5632 5630 5628 5625 5620 5616 5612 5607 5603 5599 5596 5594 5593 5590 5588 5586 5585 5584 5583 5583 5582 5584 5585 5588 5592 5597 5596 5598 5600 5603 5607
5630 5631 5632 5632 5632 5632 5632 5631 5631 5631 5630 5628 5626 5624 5620 5616 5613 5608 5604 5598 5594 5590 5587 5584 5582 5580 5579 5577 5575 5573 5571 5570 5569 5569 5570 5572 5574 5578 5583 5584 5586 5588 5591 5594
5625 5626 5627 5628 5627 5627 5626 5626 5626 5624 5622 5619 5617 5613 5609 5605 5601 5596 5592 5587 5584 5580 5577 5574 5573 5571 5569 5567 5563 5560 5557 5555 5554 5555 5556 5558 5561 5565 5569 5571 5574 5577 5581 5583
5621 5622 5623 5622 5623 5622 5622 5621 5619 5617 5614 5610 5607 5604 5599 5594 5590 5586 5582 5577 5574 5571 5568 5565 5563 5561 5559 5555 5551 5549 5546 5543 5541 5541 5542 5543 5546 5550 5554 5557 5561 5565 5569 5574